W0DXV Weather Reports


Display with metric or nautical units.
time (UTC)temp
F
wind
direction
speed
MPH
gust
MPH
rain 1hr
in
rain 24hr
in
rain mn
in
humidity
%
barometer
mb
20260902203929 98 242 1.0 1.0 0.00 0.00 0.00 45 1013.3
20260902203425 96 271 1.0 1.0 0.00 0.00 0.00 44 1013.7
20260902202924 98 264 2.0 2.0 0.00 0.00 0.00 45 1013.4
20260902202420 99 191 1.0 1.0 0.00 0.00 0.00 45 1013.3
20260902201916 98 210 1.0 1.0 0.00 0.00 0.00 45 1013.7
20260902201411 98 174 1.0 2.0 0.00 0.00 0.00 48 1013.4
20260902200906 98 213 0.0 1.0 0.00 0.00 0.00 48 1013.6
20260902200401 98 193 1.0 1.0 0.00 0.00 0.00 48 1013.8
20260902195856 97 219 1.0 1.0 0.00 0.00 0.00 47 1013.8
20260902195356 98 216 1.0 1.0 0.00 0.00 0.00 52 1013.9
20260902194851 97 228 0.0 1.0 0.00 0.00 0.00 52 1013.8
20260902194345 96 224 1.0 1.0 0.00 0.00 0.00 51 1013.9
20260902193840 97 100 1.0 1.0 0.00 0.00 0.00 55 1013.9
20260902193336 98 142 1.0 1.0 0.00 0.00 0.00 51 1014.1
20260902192835 97 249 2.0 2.0 0.00 0.00 0.00 47 1014.1
20260902192333 97 209 1.0 1.0 0.00 0.00 0.00 47 1014.1
20260902191828 96 254 1.0 1.0 0.00 0.00 0.00 46 1014.2
20260902191323 96 249 1.0 2.0 0.00 0.00 0.00 47 1014.3
20260902190819 97 243 1.0 1.0 0.00 0.00 0.00 47 1014.3
20260902190318 96 218 1.0 1.0 0.00 0.00 0.00 48 1014.4
20260902185814 96 215 1.0 1.0 0.00 0.00 0.00 47 1014.4
20260902185309 98 252 1.0 1.0 0.00 0.00 0.00 46 1014.4
20260902184805 98 217 0.0 1.0 0.00 0.00 0.00 47 1014.3
20260902184300 98 244 0.0 1.0 0.00 0.00 0.00 49 1014.5
20260902183756 97 202 1.0 1.0 0.00 0.00 0.00 52 1014.5
20260902183252 97 225 1.0 1.0 0.00 0.00 0.00 49 1014.6
20260902182748 97 268 1.0 1.0 0.00 0.00 0.00 48 1014.6
20260902182244 97 182 1.0 1.0 0.00 0.00 0.00 49 1014.5
20260902181740 97 113 0.0 1.0 0.00 0.00 0.00 50 1014.6
20260902181240 96 245 0.0 0.0 0.00 0.00 0.00 46 1014.6
20260902180735 96 195 1.0 2.0 0.00 0.00 0.00 46 1014.7
20260902180230 96 248 1.0 1.0 0.00 0.00 0.00 49 1014.8
20260902175725 97 165 1.0 2.0 0.00 0.00 0.00 51 1014.8
20260902175221 97 191 1.0 1.0 0.00 0.00 0.00 50 1014.8
20260902174717 96 208 1.0 1.0 0.00 0.00 0.00 49 1014.8
20260902174213 96 222 0.0 1.0 0.00 0.00 0.00 57 1014.9
20260902173708 95 269 1.0 2.0 0.00 0.00 0.00 52 1015.2
20260902173203 94 255 1.0 2.0 0.00 0.00 0.00 52 1015.3
20260902172703 95 4 2.0 2.0 0.00 0.00 0.00 52 1015.1
20260902172202 95 218 1.0 1.0 0.00 0.00 0.00 53 1015.0
20260902171657 95 162 1.0 2.0 0.00 0.00 0.00 54 1015.1
20260902171153 94 226 1.0 1.0 0.00 0.00 0.00 53 1015.0
20260902170648 93 259 1.0 1.0 0.00 0.00 0.00 53 1015.3
20260902170143 94 218 1.0 1.0 0.00 0.00 0.00 53 1015.3
20260902165638 95 341 1.0 2.0 0.00 0.00 0.00 52 1015.5
20260902165133 95 207 1.0 2.0 0.00 0.00 0.00 54 1015.6
20260902164628 94 295 1.0 1.0 0.00 0.00 0.00 54 1015.5
20260902164127 93 200 0.0 0.0 0.00 0.00 0.00 58 1015.6
20260902163622 94 204 1.0 1.0 0.00 0.00 0.00 56 1015.7
20260902163122 94 22 0.0 1.0 0.00 0.00 0.00 55 1015.8
20260902162620 94 218 1.0 1.0 0.00 0.00 0.00 57 1015.6
20260902162115 93 260 1.0 1.0 0.00 0.00 0.00 56 1015.7
20260902161610 93 260 1.0 1.0 0.00 0.00 0.00 57 1016.0
20260902161106 92 228 1.0 1.0 0.00 0.00 0.00 63 1016.1
20260902160601 93 147 1.0 1.0 0.00 0.00 0.00 63 1015.9
20260902160057 93 272 1.0 2.0 0.00 0.00 0.00 60 1016.0
20260902155549 92 273 3.0 3.0 0.00 0.00 0.00 59 1016.0
20260902155048 93 270 0.0 1.0 0.00 0.00 0.00 56 1015.9
20260902154544 92 198 0.0 1.0 0.00 0.00 0.00 62 1016.0
20260902154039 92 283 0.0 1.0 0.00 0.00 0.00 61 1016.0
20260902153537 93 193 1.0 1.0 0.00 0.00 0.00 59 1015.9
20260902153033 91 252 1.0 1.0 0.00 0.00 0.00 60 1016.0
20260902152529 92 255 2.0 2.0 0.00 0.00 0.00 60 1015.9
20260902152024 92 336 0.0 1.0 0.00 0.00 0.00 58 1016.1
20260902151520 91 259 0.0 0.0 0.00 0.00 0.00 61 1016.1
20260902151019 90 260 2.0 2.0 0.00 0.00 0.00 62 1016.0
20260902150515 90 222 1.0 1.0 0.00 0.00 0.00 62 1015.8
20260902150010 89 239 1.0 1.0 0.00 0.00 0.00 67 1016.2
20260902145505 89 263 2.0 2.0 0.00 0.00 0.00 66 1016.0
20260902144959 89 271 1.0 2.0 0.00 0.00 0.00 65 1016.0
20260902144456 90 253 1.0 1.0 0.00 0.00 0.00 64 1015.9
20260902143950 89 249 0.0 0.0 0.00 0.00 0.00 70 1015.7
20260902143446 88 273 1.0 1.0 0.00 0.00 0.00 69 1016.0
20260902142940 88 235 0.0 0.0 0.00 0.00 0.00 72 1016.0
20260902142436 88 248 0.0 0.0 0.00 0.00 0.00 72 1015.9
20260902141932 87 266 0.0 1.0 0.00 0.00 0.00 71 1015.7
20260902141427 87 265 1.0 1.0 0.00 0.00 0.00 72 1015.7
20260902140926 85 246 0.0 0.0 0.00 0.00 0.00 77 1015.7
20260902140421 84 224 0.0 0.0 0.00 0.00 0.00 80 1015.7
20260902135916 84 237 0.0 0.0 0.00 0.00 0.00 79 1015.5
20260902135412 83 247 1.0 1.0 0.00 0.00 0.00 79 1015.6
20260902134910 83 235 0.0 0.0 0.00 0.00 0.00 80 1015.9
20260902134407 82 240 0.0 0.0 0.00 0.00 0.00 80 1015.8
20260902133907 82 232 0.0 0.0 0.00 0.00 0.00 82 1015.8
20260902133401 81 235 0.0 0.0 0.00 0.00 0.00 83 1015.8
20260902132856 80 217 0.0 0.0 0.00 0.00 0.00 86 1015.8
20260902132351 79 258 0.0 0.0 0.00 0.00 0.00 86 1015.8
20260902131847 80 258 0.0 0.0 0.00 0.00 0.00 87 1015.8
20260902131343 80 258 0.0 0.0 0.00 0.00 0.00 84 1015.9
20260902130842 80 260 0.0 0.0 0.00 0.00 0.00 85 1015.8
20260902130338 79 259 0.0 0.0 0.00 0.00 0.00 87 1016.0
20260902125833 78 259 0.0 0.0 0.00 0.00 0.00 90 1015.9
20260902125329 78 259 1.0 1.0 0.00 0.00 0.00 90 1015.8
20260902124825 78 259 0.0 0.0 0.00 0.00 0.00 88 1015.8
20260902124321 78 259 0.0 0.0 0.00 0.00 0.00 88 1015.8
20260902123815 78 259 0.0 0.0 0.00 0.00 0.00 89 1015.8
20260902123312 78 261 0.0 0.0 0.00 0.00 0.00 88 1015.9
20260902122810 77 256 0.0 0.0 0.00 0.00 0.00 90 1015.7
20260902122307 76 256 0.0 0.0 0.00 0.00 0.00 93 1015.6
20260902121806 76 257 1.0 1.0 0.00 0.00 0.00 92 1015.7
20260902121301 76 256 0.0 0.0 0.00 0.00 0.00 91 1015.9
20260902120757 74 256 0.0 0.0 0.00 0.00 0.00 97 1015.7
20260902120253 73 257 0.0 0.0 0.00 0.00 0.00 97 1015.8
20260902115748 75 256 0.0 0.0 0.00 0.00 0.00 99 1015.6
20260902115244 73 256 0.0 0.0 0.00 0.00 0.00 99 1015.7
20260902114740 72 257 0.0 0.0 0.00 0.00 0.00 99 1015.5
20260902114235 71 257 0.0 0.0 0.00 0.00 0.00 99 1015.4
20260902113730 71 257 0.0 0.0 0.00 0.00 0.00 99 1015.5
20260902113226 70 257 0.0 1.0 0.00 0.00 0.00 99 1015.6
20260902112725 70 257 0.0 0.0 0.00 0.00 0.00 99 1015.5
20260902112222 70 257 0.0 0.0 0.00 0.00 0.00 99 1015.4
20260902111717 70 257 0.0 0.0 0.00 0.00 0.00 99 1015.4
20260902111213 70 257 0.0 0.0 0.00 0.00 0.00 99 1015.4
20260902110709 70 257 0.0 0.0 0.00 0.00 0.00 99 1015.2
20260902110205 70 257 0.0 0.0 0.00 0.00 0.00 99 1015.3
20260902105704 70 257 0.0 0.0 0.00 0.00 0.00 99 1015.2
20260902105200 70 257 0.0 0.0 0.00 0.00 0.00 99 1015.3
20260902104655 70 257 0.0 0.0 0.00 0.00 0.00 99 1015.2
20260902104150 70 257 0.0 0.0 0.00 0.00 0.00 99 1015.2
20260902103649 70 257 0.0 0.0 0.00 0.00 0.00 99 1014.9
20260902103145 70 257 0.0 0.0 0.00 0.00 0.00 99 1015.2
20260902102641 70 257 0.0 0.0 0.00 0.00 0.00 99 1015.3
20260902102138 70 257 0.0 0.0 0.00 0.00 0.00 99 1015.4
20260902101633 71 257 0.0 0.0 0.00 0.00 0.00 99 1015.2
20260902101132 70 257 0.0 0.0 0.00 0.00 0.00 99 1015.4
20260902100627 70 257 0.0 0.0 0.00 0.00 0.00 99 1015.2
20260902100122 71 257 0.0 0.0 0.00 0.00 0.00 99 1015.2
20260902095621 71 257 0.0 0.0 0.00 0.00 0.00 99 1015.0
20260902095120 71 257 0.0 0.0 0.00 0.00 0.00 99 1015.2
20260902094616 71 257 0.0 0.0 0.00 0.00 0.00 99 1014.9
20260902094113 71 257 0.0 0.0 0.00 0.00 0.00 99 1015.1
20260902093612 71 257 0.0 0.0 0.00 0.00 0.00 99 1015.1
20260902093107 71 257 0.0 0.0 0.00 0.00 0.00 99 1015.2
20260902092606 71 257 0.0 0.0 0.00 0.00 0.00 99 1015.0
20260902092102 71 257 0.0 0.0 0.00 0.00 0.00 99 1014.9
20260902091557 71 257 0.0 0.0 0.00 0.00 0.00 99 1015.0
20260902091053 71 257 0.0 0.0 0.00 0.00 0.00 99 1014.9
20260902090548 71 257 0.0 0.0 0.00 0.00 0.00 99 1014.7
20260902090047 71 258 0.0 0.0 0.00 0.00 0.00 99 1015.0
20260902085542 71 174 0.0 1.0 0.00 0.00 0.00 99 1014.7
20260902085037 71 220 0.0 0.0 0.00 0.00 0.00 99 1014.7
20260902084534 71 220 0.0 0.0 0.00 0.00 0.00 99 1014.6
20260902084029 71 220 0.0 0.0 0.00 0.00 0.00 99 1014.7
20260902083524 71 220 0.0 0.0 0.00 0.00 0.00 99 1014.6
20260902083019 71 220 0.0 0.0 0.00 0.00 0.00 99 1014.4
20260902082515 71 219 0.0 0.0 0.00 0.00 0.00 99 1014.5
20260902082011 71 220 0.0 0.0 0.00 0.00 0.00 99 1014.5
20260902081508 71 220 0.0 0.0 0.00 0.00 0.00 99 1014.6
20260902081007 72 220 0.0 0.0 0.00 0.00 0.00 99 1014.4
20260902080503 71 220 0.0 0.0 0.00 0.00 0.00 99 1014.4
20260902080002 72 220 0.0 0.0 0.00 0.00 0.00 99 1014.4
20260902075458 71 220 0.0 0.0 0.00 0.00 0.00 99 1014.4
20260902074954 71 220 0.0 0.0 0.00 0.00 0.00 99 1014.6
20260902074449 71 220 0.0 0.0 0.00 0.00 0.00 99 1014.4
20260902073944 72 220 0.0 0.0 0.00 0.00 0.00 99 1014.5
20260902073440 72 220 0.0 0.0 0.00 0.00 0.00 99 1014.6
20260902072936 72 220 0.0 0.0 0.00 0.00 0.00 99 1014.5
20260902072432 72 220 0.0 0.0 0.00 0.00 0.00 99 1014.5
20260902071928 72 220 0.0 0.0 0.00 0.00 0.00 99 1014.5
20260902071427 72 220 0.0 0.0 0.00 0.00 0.00 99 1014.2
20260902070924 72 220 0.0 0.0 0.00 0.00 0.00 99 1014.4
20260902070420 72 220 0.0 0.0 0.00 0.00 0.00 99 1014.4
20260902065918 72 220 0.0 0.0 0.00 0.00 0.00 99 1014.3
20260902065414 72 219 0.0 0.0 0.00 0.00 0.00 99 1014.4
20260902064908 72 220 0.0 0.0 0.00 0.00 0.00 99 1014.5
20260902064404 72 220 0.0 0.0 0.00 0.00 0.00 99 1014.5
20260902063900 73 220 0.0 0.0 0.00 0.00 0.00 99 1014.9
20260902063355 73 219 0.0 0.0 0.00 0.00 0.00 99 1014.6
20260902062855 73 220 0.0 0.0 0.00 0.00 0.00 99 1014.5
20260902062353 72 220 0.0 0.0 0.00 0.00 0.00 99 1014.5
20260902061848 72 220 0.0 0.0 0.00 0.00 0.00 99 1014.3
20260902061343 73 220 0.0 0.0 0.00 0.00 0.00 99 1014.3
20260902060839 73 219 0.0 0.0 0.00 0.00 0.00 99 1014.3
20260902060335 73 220 0.0 0.0 0.00 0.00 0.00 99 1014.4
20260902055830 73 220 0.0 0.0 0.00 0.00 0.00 99 1014.4
20260902055326 73 220 0.0 0.0 0.00 0.00 0.00 99 1014.4
20260902054821 73 220 0.0 0.0 0.00 0.00 0.00 99 1014.2
20260902054317 73 220 0.0 0.0 0.00 0.00 0.00 99 1014.4
20260902053812 73 220 0.0 0.0 0.00 0.00 0.00 99 1014.3
20260902053307 73 220 0.0 0.0 0.00 0.00 0.00 99 1014.2
20260902052806 73 220 0.0 0.0 0.00 0.00 0.00 99 1014.2
20260902052306 73 220 0.0 0.0 0.00 0.00 0.00 99 1014.5
20260902051756 73 220 0.0 0.0 0.00 0.00 0.00 99 1014.3
20260902051255 73 220 0.0 0.0 0.00 0.00 0.00 99 1014.2
20260902050751 73 219 0.0 0.0 0.00 0.00 0.00 99 1014.2
20260902050245 73 220 0.0 0.0 0.00 0.00 0.00 99 1014.2
20260902045745 74 220 0.0 0.0 0.00 0.00 0.00 99 1014.1
20260902045241 74 220 0.0 0.0 0.00 0.00 0.00 99 1014.2
20260902044737 74 219 0.0 0.0 0.00 0.00 0.00 99 1014.3
20260902044232 73 219 0.0 0.0 0.00 0.00 0.00 99 1014.3
20260902043727 73 219 0.0 0.0 0.00 0.00 0.00 99 1014.0
20260902043223 74 219 0.0 0.0 0.00 0.00 0.00 99 1014.3
20260902042722 74 219 0.0 0.0 0.00 0.00 0.00 99 1014.3
20260902042217 74 219 0.0 0.0 0.00 0.00 0.00 98 1014.3
20260902041712 74 219 0.0 0.0 0.00 0.00 0.00 98 1014.2
20260902041207 74 219 0.0 0.0 0.00 0.00 0.00 98 1014.3
20260902040706 74 219 0.0 0.0 0.00 0.00 0.00 98 1014.0
20260902040202 74 219 0.0 0.0 0.00 0.00 0.00 98 1014.3
20260902035700 74 219 0.0 0.0 0.00 0.00 0.00 98 1014.4
20260902035155 74 219 0.0 0.0 0.00 0.00 0.00 98 1014.3
20260902034655 74 219 0.0 0.0 0.00 0.00 0.00 98 1014.2
20260902034154 74 219 0.0 0.0 0.00 0.00 0.00 98 1014.2
20260902033653 74 219 0.0 0.0 0.00 0.00 0.00 98 1014.2
20260902033148 74 219 0.0 0.0 0.00 0.00 0.00 98 1014.2
20260902032647 74 219 0.0 0.0 0.00 0.00 0.00 98 1014.1
20260902032142 75 219 0.0 0.0 0.00 0.00 0.00 98 1014.1
20260902031636 75 219 0.0 0.0 0.00 0.00 0.00 98 1014.2
20260902031132 75 219 0.0 0.0 0.00 0.00 0.00 98 1013.9
20260902030627 75 219 0.0 0.0 0.00 0.00 0.00 97 1014.0
20260902030127 75 219 0.0 0.0 0.00 0.00 0.00 97 1014.0
20260902025626 75 219 0.0 0.0 0.00 0.00 0.00 97 1013.9
20260902025122 75 219 0.0 0.0 0.00 0.00 0.00 97 1014.1
20260902024617 75 219 0.0 0.0 0.00 0.00 0.00 97 1013.9
20260902024112 75 219 0.0 0.0 0.00 0.00 0.00 97 1014.2
20260902023608 75 219 0.0 0.0 0.00 0.00 0.00 97 1014.1
20260902023102 76 219 0.0 0.0 0.00 0.00 0.00 96 1014.0
20260902022601 76 219 0.0 0.0 0.00 0.00 0.00 96 1014.0
20260902022058 76 219 0.0 0.0 0.00 0.00 0.00 96 1014.1
20260902021553 76 219 0.0 0.0 0.00 0.00 0.00 96 1014.1
20260902021048 76 219 0.0 0.0 0.00 0.00 0.00 96 1014.0
20260902020538 76 224 0.0 0.0 0.00 0.00 0.00 96 1013.9
20260902020034 76 224 0.0 0.0 0.00 0.00 0.00 96 1013.7
20260902015530 76 224 0.0 0.0 0.00 0.00 0.00 96 1013.9
20260902015025 77 224 0.0 0.0 0.00 0.00 0.00 96 1013.6
20260902014521 77 224 0.0 0.0 0.00 0.00 0.00 95 1013.7
20260902014016 77 224 0.0 0.0 0.00 0.00 0.00 95 1013.6
20260902013511 77 224 0.0 0.0 0.00 0.00 0.00 95 1013.3
20260902013007 77 224 0.0 0.0 0.00 0.00 0.00 95 1013.4
20260902012502 77 224 0.0 0.0 0.00 0.00 0.00 95 1013.4
20260902011957 78 224 0.0 0.0 0.00 0.00 0.00 95 1013.3
20260902011453 78 224 0.0 0.0 0.00 0.00 0.00 94 1013.3
20260902010952 78 224 0.0 0.0 0.00 0.00 0.00 94 1013.3
20260902010447 78 224 0.0 0.0 0.00 0.00 0.00 94 1013.1
20260902005946 78 224 0.0 0.0 0.00 0.00 0.00 94 1013.2
20260902005445 78 224 0.0 0.0 0.00 0.00 0.00 93 1013.3
20260902004942 79 224 0.0 0.0 0.00 0.00 0.00 93 1013.1
20260902004441 79 224 0.0 1.0 0.00 0.00 0.00 93 1012.9
20260902003937 79 224 0.0 0.0 0.00 0.00 0.00 92 1012.9
20260902003436 79 225 0.0 0.0 0.00 0.00 0.00 92 1013.0
20260902002932 80 224 0.0 0.0 0.00 0.00 0.00 92 1013.0
20260902002427 80 224 0.0 0.0 0.00 0.00 0.00 91 1013.1
20260902001926 80 224 0.0 0.0 0.00 0.00 0.00 91 1012.9
20260902001421 80 224 0.0 0.0 0.00 0.00 0.00 90 1013.1
20260902000917 81 224 0.0 0.0 0.00 0.00 0.00 89 1012.9
20260902000414 81 224 0.0 0.0 0.00 0.00 0.00 89 1013.2
20260901235907 82 224 0.0 0.0 0.00 0.00 0.00 88 1012.9
20260901235406 82 224 0.0 0.0 0.00 0.00 0.00 87 1013.2
20260901234856 83 224 0.0 0.0 0.00 0.00 0.00 86 1013.2
20260901234356 83 225 0.0 0.0 0.00 0.00 0.00 85 1013.3
20260901233851 83 225 0.0 0.0 0.00 0.00 0.00 84 1013.1
20260901233346 84 225 0.0 0.0 0.00 0.00 0.00 83 1013.2
20260901232842 85 225 0.0 0.0 0.00 0.00 0.00 82 1013.1
20260901232337 85 225 0.0 0.0 0.00 0.00 0.00 80 1013.3
20260901231833 86 225 0.0 0.0 0.00 0.00 0.00 80 1013.2
20260901231329 86 225 0.0 0.0 0.00 0.00 0.00 79 1013.3
20260901230825 86 225 0.0 0.0 0.00 0.00 0.00 75 1013.3
20260901230325 87 225 0.0 0.0 0.00 0.00 0.00 75 1013.7
20260901225820 87 225 0.0 0.0 0.00 0.00 0.00 71 1013.6
20260901225319 87 227 0.0 0.0 0.00 0.00 0.00 69 1013.3
20260901224815 88 227 0.0 0.0 0.00 0.00 0.00 69 1013.3
20260901224311 88 227 0.0 0.0 0.00 0.00 0.00 68 1013.4
20260901223807 89 233 0.0 0.0 0.00 0.00 0.00 67 1013.3
20260901223302 89 234 0.0 0.0 0.00 0.00 0.00 66 1013.0
20260901222758 89 235 0.0 0.0 0.00 0.00 0.00 65 1013.3
20260901222254 89 235 0.0 0.0 0.00 0.00 0.00 64 1013.6
20260901221750 89 240 0.0 0.0 0.00 0.00 0.00 64 1013.2
20260901221245 89 209 1.0 1.0 0.00 0.00 0.00 62 1013.3
20260901220744 90 234 0.0 1.0 0.00 0.00 0.00 61 1013.1
20260901220238 90 185 1.0 1.0 0.00 0.00 0.00 61 1013.2
20260901215737 90 232 0.0 0.0 0.00 0.00 0.00 61 1013.1
20260901215232 91 192 1.0 1.0 0.00 0.00 0.00 58 1013.3
20260901214730 91 205 1.0 1.0 0.00 0.00 0.00 57 1013.3
20260901214223 91 176 1.0 1.0 0.00 0.00 0.00 57 1013.2
20260901213718 92 238 0.0 1.0 0.00 0.00 0.00 52 1013.3
20260901213213 92 267 1.0 1.0 0.00 0.00 0.00 52 1013.3
20260901212712 92 242 0.0 0.0 0.00 0.00 0.00 54 1013.6
20260901212208 92 231 1.0 1.0 0.00 0.00 0.00 51 1013.4
20260901211708 91 274 3.0 3.0 0.00 0.00 0.00 54 1013.4
20260901211205 92 219 0.0 0.0 0.00 0.00 0.00 55 1013.4
20260901210700 92 246 0.0 1.0 0.00 0.00 0.00 57 1013.4
20260901210156 93 201 1.0 1.0 0.00 0.00 0.00 56 1013.4
20260901205651 93 241 1.0 1.0 0.00 0.00 0.00 54 1013.3
20260901205146 94 246 3.0 3.0 0.00 0.00 0.00 47 1013.4
20260901204642 95 244 1.0 1.0 0.00 0.00 0.00 47 1013.6
20260901204137 95 266 3.0 3.0 0.00 0.00 0.00 47 1013.6